カタログに戻る

STARLINK-36667

運用中通信VLEO
NORAD 68975·PAYLOAD·🇺🇸 United States

打ち上げ May 1, 2026 から Cape Canaveral Space Force Station

Loading…

次のパス (今後24時間)

TLE

最新Source: CelesTrak SupGP

元期: Sep 14, 2026, 23:26 UTC

1 68975C 26099AA  26257.97687500  .00017095  00000+0  50526-3 0  2574
2 68975  53.1565 101.3400 0001433  87.2020 147.6670 15.34370499    18

AllMySatでSTARLINK-36667をリアルタイム追跡

Download on the App Store